| time (UTC) | temp C | wind direction | speed KPH | gust KPH | rain 1hr cm | rain 24hr cm | rain mn cm | humidity % | barometer mb |
| 20260507085517 | 3 | 342 | 1.6 | 3.2 | 0.00 | 0.00 | 0.00 | 92 | 1011.5 |
| 20260507085014 | 3 | 353 | 0.0 | 3.2 | 0.00 | 0.00 | 0.00 | 91 | 1011.5 |
| 20260507084511 | 3 | 353 | 1.6 | 3.2 | 0.00 | 0.00 | 0.00 | 91 | 1011.8 |
| 20260507084008 | 3 | 13 | 1.6 | 3.2 | 0.00 | 0.00 | 0.00 | 89 | 1011.7 |
| 20260507083504 | 3 | 310 | 0.0 | 3.2 | 0.00 | 0.00 | 0.00 | 89 | 1011.6 |
| 20260507083001 | 3 | 347 | 1.6 | 4.8 | 0.00 | 0.00 | 0.00 | 88 | 1011.7 |
| 20260507082457 | 3 | 327 | 3.2 | 6.4 | 0.00 | 0.00 | 0.00 | 88 | 1011.8 |
| 20260507081953 | 3 | 350 | 4.8 | 4.8 | 0.00 | 0.00 | 0.00 | 88 | 1011.6 |
| 20260507081449 | 3 | 278 | 0.0 | 4.8 | 0.00 | 0.00 | 0.00 | 87 | 1011.8 |
| 20260507080947 | 3 | 331 | 3.2 | 4.8 | 0.00 | 0.00 | 0.00 | 87 | 1011.5 |
| 20260507080442 | 3 | 341 | 1.6 | 4.8 | 0.00 | 0.00 | 0.00 | 87 | 1011.7 |
| 20260507075938 | 3 | 263 | 0.0 | 4.8 | 0.00 | 0.00 | 0.00 | 88 | 1011.8 |
| 20260507075435 | 3 | 353 | 0.0 | 3.2 | 0.00 | 0.00 | 0.00 | 88 | 1011.6 |
| 20260507074931 | 3 | 342 | 1.6 | 4.8 | 0.00 | 0.00 | 0.00 | 87 | 1011.6 |
| 20260507074428 | 3 | 326 | 3.2 | 4.8 | 0.00 | 0.00 | 0.00 | 87 | 1011.5 |
| 20260507073926 | 3 | 349 | 3.2 | 4.8 | 0.00 | 0.00 | 0.00 | 88 | 1011.6 |
| 20260507073422 | 3 | 339 | 0.0 | 8.0 | 0.00 | 0.00 | 0.00 | 88 | 1011.3 |
| 20260507072919 | 3 | 3 | 3.2 | 4.8 | 0.00 | 0.00 | 0.00 | 89 | 1011.4 |
| 20260507072417 | 4 | 55 | 0.0 | 3.2 | 0.00 | 0.00 | 0.00 | 89 | 1011.5 |
| 20260507071914 | 4 | 333 | 1.6 | 3.2 | 0.00 | 0.00 | 0.00 | 89 | 1011.5 |
| 20260507071411 | 4 | 252 | 0.0 | 6.4 | 0.00 | 0.00 | 0.00 | 89 | 1011.7 |
| 20260507070907 | 4 | 7 | 1.6 | 6.4 | 0.00 | 0.00 | 0.00 | 90 | 1011.8 |
| 20260507070405 | 4 | 250 | 0.0 | 8.0 | 0.00 | 0.00 | 0.00 | 90 | 1011.8 |
| 20260507065901 | 4 | 5 | 0.0 | 1.6 | 0.00 | 0.00 | 0.00 | 91 | 1011.7 |
| 20260507065358 | 4 | 338 | 4.8 | 11.3 | 0.00 | 0.00 | 0.00 | 91 | 1011.5 |
| 20260507064855 | 5 | 301 | 3.2 | 8.0 | 0.00 | 0.00 | 0.00 | 92 | 1011.4 |
| 20260507064353 | 5 | 26 | 4.8 | 8.0 | 0.00 | 0.00 | 0.00 | 92 | 1011.5 |
| 20260507063851 | 5 | 340 | 6.4 | 8.0 | 0.00 | 0.00 | 0.00 | 92 | 1011.6 |
| 20260507063348 | 5 | 332 | 3.2 | 6.4 | 0.00 | 0.00 | 0.00 | 92 | 1011.4 |
| 20260507062845 | 5 | 349 | 4.8 | 9.7 | 0.00 | 0.00 | 0.00 | 92 | 1011.4 |
| 20260507062341 | 5 | 353 | 11.3 | 14.5 | 0.00 | 0.00 | 0.00 | 93 | 1011.3 |
| 20260507061839 | 5 | 346 | 4.8 | 8.0 | 0.00 | 0.00 | 0.00 | 94 | 1011.2 |
| 20260507061337 | 5 | 336 | 3.2 | 6.4 | 0.00 | 0.00 | 0.00 | 95 | 1011.2 |
| 20260507060835 | 5 | 303 | 6.4 | 8.0 | 0.00 | 0.00 | 0.00 | 95 | 1011.2 |
| 20260507060332 | 5 | 335 | 3.2 | 8.0 | 0.00 | 0.00 | 0.00 | 95 | 1011.1 |
| 20260507055829 | 5 | 311 | 6.4 | 11.3 | 0.00 | 0.00 | 0.00 | 95 | 1011.1 |
| 20260507055323 | 5 | 246 | 4.8 | 8.0 | 0.00 | 0.00 | 0.00 | 95 | 1011.3 |
| 20260507054821 | 5 | 289 | 0.0 | 9.7 | 0.00 | 0.00 | 0.00 | 96 | 1011.2 |
| 20260507054316 | 5 | 318 | 3.2 | 8.0 | 0.00 | 0.00 | 0.00 | 96 | 1011.1 |
| 20260507053814 | 5 | 257 | 4.8 | 11.3 | 0.00 | 0.00 | 0.00 | 96 | 1010.9 |
| 20260507053312 | 5 | 4 | 1.6 | 11.3 | 0.00 | 0.00 | 0.00 | 96 | 1011.0 |
| 20260507052811 | 5 | 308 | 1.6 | 6.4 | 0.00 | 0.00 | 0.00 | 96 | 1011.2 |
| 20260507052307 | 5 | 316 | 0.0 | 12.9 | 0.00 | 0.00 | 0.00 | 96 | 1011.2 |
| 20260507051805 | 5 | 338 | 0.0 | 4.8 | 0.00 | 0.00 | 0.00 | 96 | 1011.3 |
| 20260507051302 | 6 | 23 | 1.6 | 4.8 | 0.00 | 0.00 | 0.00 | 96 | 1011.2 |
| 20260507050758 | 6 | 317 | 0.0 | 4.8 | 0.00 | 0.00 | 0.00 | 96 | 1011.3 |
| 20260507050255 | 6 | 0 | 3.2 | 6.4 | 0.00 | 0.00 | 0.00 | 96 | 1011.4 |
| 20260507045752 | 6 | 2 | 3.2 | 6.4 | 0.00 | 0.00 | 0.00 | 96 | 1011.3 |
| 20260507045248 | 6 | 15 | 4.8 | 4.8 | 0.00 | 0.00 | 0.00 | 96 | 1011.3 |
| 20260507044745 | 6 | 94 | 1.6 | 1.6 | 0.00 | 0.00 | 0.00 | 96 | 1011.3 |
| 20260507044241 | 6 | 246 | 1.6 | 3.2 | 0.00 | 0.00 | 0.00 | 96 | 1011.2 |
| 20260507043738 | 6 | 38 | 0.0 | 1.6 | 0.00 | 0.00 | 0.00 | 96 | 1011.3 |
| 20260507043235 | 6 | 283 | 1.6 | 4.8 | 0.00 | 0.00 | 0.00 | 96 | 1011.1 |
| 20260507042731 | 5 | 113 | 0.0 | 3.2 | 0.00 | 0.00 | 0.00 | 96 | 1011.3 |
| 20260507042226 | 5 | 135 | 0.0 | 1.6 | 0.00 | 0.00 | 0.00 | 96 | 1011.1 |
| 20260507041724 | 5 | 135 | 0.0 | 3.2 | 0.00 | 0.00 | 0.00 | 96 | 1010.9 |
| 20260507041220 | 5 | 103 | 0.0 | 3.2 | 0.00 | 0.00 | 0.00 | 96 | 1010.9 |
| 20260507040718 | 5 | 127 | 3.2 | 4.8 | 0.00 | 0.00 | 0.00 | 96 | 1010.6 |
| 20260507040213 | 5 | 124 | 0.0 | 3.2 | 0.00 | 0.94 | 0.94 | 96 | 1011.1 |
| 20260507035710 | 5 | 135 | 3.2 | 4.8 | 0.00 | 0.94 | 0.94 | 96 | 1010.9 |
| 20260507035205 | 5 | 224 | 0.0 | 1.6 | 0.00 | 0.94 | 0.94 | 96 | 1010.7 |
| 20260507034702 | 5 | 110 | 3.2 | 4.8 | 0.00 | 0.94 | 0.94 | 96 | 1010.6 |
| 20260507034200 | 5 | 118 | 1.6 | 3.2 | 0.00 | 0.94 | 0.94 | 96 | 1011.0 |
| 20260507033658 | 5 | 69 | 0.0 | 3.2 | 0.00 | 0.94 | 0.94 | 96 | 1010.8 |
| 20260507033155 | 5 | 91 | 0.0 | 3.2 | 0.00 | 0.94 | 0.94 | 96 | 1010.4 |
| 20260507032652 | 5 | 104 | 3.2 | 3.2 | 0.00 | 0.94 | 0.94 | 96 | 1010.8 |
| 20260507032148 | 5 | 121 | 1.6 | 3.2 | 0.00 | 0.94 | 0.94 | 96 | 1011.0 |
| 20260507031645 | 5 | 107 | 3.2 | 3.2 | 0.00 | 0.94 | 0.94 | 96 | 1010.9 |
| 20260507031142 | 5 | 110 | 0.0 | 1.6 | 0.00 | 0.94 | 0.94 | 96 | 1011.2 |
| 20260507030638 | 5 | 89 | 0.0 | 0.0 | 0.00 | 0.94 | 0.94 | 96 | 1011.1 |
| 20260507030137 | 5 | 96 | 3.2 | 4.8 | 0.00 | 0.94 | 0.94 | 96 | 1011.0 |
| 20260507025633 | 5 | 117 | 0.0 | 1.6 | 0.00 | 0.94 | 0.94 | 96 | 1011.1 |
| 20260507025130 | 5 | 146 | 1.6 | 4.8 | 0.00 | 0.94 | 0.94 | 96 | 1011.2 |
| 20260507024628 | 5 | 146 | 1.6 | 4.8 | 0.00 | 0.94 | 0.94 | 96 | 1011.3 |
| 20260507024125 | 5 | 135 | 3.2 | 4.8 | 0.00 | 0.94 | 0.94 | 96 | 1011.2 |
| 20260507023620 | 5 | 128 | 3.2 | 3.2 | 0.00 | 0.94 | 0.94 | 96 | 1011.1 |
| 20260507023118 | 5 | 107 | 1.6 | 4.8 | 0.00 | 0.94 | 0.94 | 96 | 1010.8 |
| 20260507022615 | 5 | 89 | 3.2 | 4.8 | 0.00 | 0.94 | 0.94 | 96 | 1011.2 |
| 20260507022110 | 5 | 138 | 4.8 | 4.8 | 0.00 | 0.94 | 0.94 | 96 | 1011.4 |
| 20260507021607 | 5 | 135 | 3.2 | 4.8 | 0.00 | 0.94 | 0.94 | 96 | 1011.5 |
| 20260507021103 | 5 | 101 | 1.6 | 3.2 | 0.00 | 0.94 | 0.94 | 96 | 1011.3 |
| 20260507020601 | 5 | 190 | 0.0 | 3.2 | 0.00 | 0.94 | 0.94 | 96 | 1011.6 |
| 20260507020057 | 5 | 104 | 3.2 | 3.2 | 0.00 | 0.94 | 0.94 | 96 | 1011.4 |
| 20260507015556 | 5 | 93 | 3.2 | 3.2 | 0.00 | 0.94 | 0.94 | 96 | 1011.4 |
| 20260507015053 | 5 | 102 | 0.0 | 3.2 | 0.00 | 0.94 | 0.94 | 96 | 1011.6 |
| 20260507014549 | 6 | 77 | 0.0 | 0.0 | 0.00 | 0.94 | 0.94 | 96 | 1011.6 |
| 20260507014044 | 6 | 76 | 0.0 | 1.6 | 0.00 | 0.94 | 0.94 | 96 | 1011.3 |
| 20260507013542 | 6 | 53 | 1.6 | 3.2 | 0.00 | 0.94 | 0.94 | 96 | 1011.4 |
| 20260507013039 | 6 | 32 | 1.6 | 3.2 | 0.00 | 0.94 | 0.94 | 96 | 1011.4 |
| 20260507012536 | 6 | 76 | 0.0 | 0.0 | 0.00 | 0.94 | 0.94 | 96 | 1011.5 |
| 20260507012032 | 6 | 78 | 0.0 | 1.6 | 0.00 | 0.94 | 0.94 | 96 | 1011.5 |
| 20260507011530 | 6 | 119 | 0.0 | 1.6 | 0.00 | 0.94 | 0.94 | 96 | 1011.5 |
| 20260507011026 | 6 | 115 | 1.6 | 4.8 | 0.00 | 0.94 | 0.94 | 95 | 1011.1 |
| 20260507010520 | 6 | 118 | 0.0 | 1.6 | 0.00 | 0.94 | 0.94 | 95 | 1011.3 |
| 20260507010017 | 6 | 113 | 0.0 | 3.2 | 0.00 | 0.94 | 0.94 | 95 | 1011.3 |
| 20260507005514 | 6 | 135 | 0.0 | 3.2 | 0.00 | 0.94 | 0.94 | 95 | 1011.1 |
| 20260507005005 | 6 | 299 | 0.0 | 8.0 | 0.00 | 0.94 | 0.94 | 95 | 1011.0 |
| 20260507004502 | 6 | 44 | 0.0 | 1.6 | 0.00 | 0.94 | 0.94 | 95 | 1011.0 |
| 20260507004000 | 6 | 221 | 1.6 | 4.8 | 0.00 | 0.94 | 0.94 | 95 | 1011.1 |
| 20260507003454 | 6 | 124 | 0.0 | 6.4 | 0.00 | 0.94 | 0.94 | 96 | 1010.9 |
| 20260507002949 | 6 | 283 | 0.0 | 4.8 | 0.00 | 0.94 | 0.94 | 96 | 1010.9 |
| 20260507002447 | 6 | 274 | 0.0 | 4.8 | 0.00 | 0.94 | 0.94 | 96 | 1011.0 |
| 20260507001943 | 6 | 252 | 3.2 | 4.8 | 0.00 | 0.94 | 0.94 | 96 | 1010.7 |
| 20260507001440 | 6 | 328 | 0.0 | 3.2 | 0.00 | 0.94 | 0.94 | 96 | 1010.7 |
| 20260507000938 | 6 | 232 | 4.8 | 8.0 | 0.00 | 0.94 | 0.94 | 96 | 1010.8 |
| 20260507000435 | 6 | 240 | 3.2 | 8.0 | 0.00 | 0.94 | 0.94 | 96 | 1010.5 |
| 20260506235929 | 6 | 202 | 0.0 | 3.2 | 0.00 | 0.94 | 0.94 | 96 | 1010.7 |
| 20260506235426 | 6 | 192 | 0.0 | 3.2 | 0.00 | 0.94 | 0.94 | 96 | 1010.7 |
| 20260506234921 | 6 | 104 | 1.6 | 3.2 | 0.00 | 0.94 | 0.94 | 95 | 1010.4 |
| 20260506234420 | 6 | 179 | 1.6 | 3.2 | 0.00 | 0.94 | 0.94 | 95 | 1010.4 |
| 20260506233917 | 6 | 207 | 3.2 | 9.7 | 0.00 | 0.94 | 0.94 | 95 | 1010.4 |
| 20260506233413 | 6 | 273 | 3.2 | 6.4 | 0.00 | 0.94 | 0.94 | 95 | 1010.4 |
| 20260506232910 | 6 | 124 | 0.0 | 4.8 | 0.00 | 0.94 | 0.94 | 95 | 1010.4 |
| 20260506232406 | 6 | 245 | 1.6 | 4.8 | 0.00 | 0.94 | 0.94 | 95 | 1010.3 |
| 20260506231902 | 6 | 205 | 4.8 | 8.0 | 0.00 | 0.94 | 0.94 | 95 | 1010.2 |
| 20260506231400 | 6 | 245 | 3.2 | 6.4 | 0.00 | 0.94 | 0.94 | 96 | 1010.3 |
| 20260506230857 | 6 | 230 | 1.6 | 4.8 | 0.00 | 0.94 | 0.94 | 96 | 1010.2 |
| 20260506230354 | 6 | 22 | 0.0 | 4.8 | 0.00 | 0.94 | 0.94 | 96 | 1010.2 |
| 20260506225850 | 6 | 0 | 0.0 | 4.8 | 0.00 | 0.94 | 0.94 | 96 | 1010.2 |
| 20260506225347 | 6 | 223 | 0.0 | 8.0 | 0.00 | 0.94 | 0.94 | 96 | 1010.1 |
| 20260506224844 | 6 | 125 | 0.0 | 8.0 | 0.00 | 0.94 | 0.94 | 96 | 1010.1 |
| 20260506224342 | 6 | 239 | 1.6 | 4.8 | 0.00 | 0.94 | 0.94 | 96 | 1010.1 |
| 20260506223838 | 6 | 326 | 0.0 | 4.8 | 0.00 | 0.94 | 0.94 | 96 | 1009.8 |
| 20260506223333 | 6 | 256 | 4.8 | 6.4 | 0.00 | 0.94 | 0.94 | 96 | 1009.8 |
| 20260506222831 | 6 | 234 | 1.6 | 6.4 | 0.00 | 0.94 | 0.94 | 96 | 1009.5 |
| 20260506222326 | 6 | 10 | 6.4 | 8.0 | 0.00 | 0.94 | 0.94 | 96 | 1009.9 |
| 20260506221824 | 6 | 334 | 4.8 | 8.0 | 0.00 | 0.94 | 0.94 | 96 | 1010.0 |
| 20260506221321 | 6 | 292 | 3.2 | 16.1 | 0.00 | 0.94 | 0.94 | 96 | 1009.8 |
| 20260506220819 | 6 | 246 | 4.8 | 6.4 | 0.00 | 0.94 | 0.94 | 96 | 1009.8 |
| 20260506220314 | 6 | 320 | 1.6 | 8.0 | 0.00 | 0.94 | 0.94 | 96 | 1009.7 |
| 20260506215810 | 6 | 161 | 0.0 | 4.8 | 0.05 | 0.94 | 0.94 | 96 | 1009.3 |
| 20260506215307 | 6 | 235 | 0.0 | 11.3 | 0.00 | 0.91 | 0.91 | 96 | 1009.7 |
| 20260506214803 | 6 | 291 | 4.8 | 17.7 | 0.00 | 0.91 | 0.91 | 96 | 1009.6 |
| 20260506214259 | 6 | 292 | 3.2 | 9.7 | 0.00 | 0.91 | 0.91 | 96 | 1009.5 |
| 20260506213758 | 6 | 283 | 6.4 | 16.1 | 0.05 | 0.91 | 0.91 | 96 | 1009.6 |
| 20260506213254 | 7 | 302 | 4.8 | 14.5 | 0.05 | 0.91 | 0.91 | 96 | 1009.6 |
| 20260506212752 | 7 | 338 | 1.6 | 20.9 | 0.00 | 0.91 | 0.91 | 96 | 1009.3 |
| 20260506212247 | 7 | 272 | 4.8 | 17.7 | 0.05 | 0.91 | 0.91 | 96 | 1009.1 |
| 20260506211743 | 7 | 290 | 0.0 | 8.0 | 0.05 | 0.91 | 0.91 | 96 | 1009.2 |
| 20260506211239 | 7 | 329 | 4.8 | 11.3 | 0.05 | 0.91 | 0.91 | 96 | 1008.9 |
| 20260506210736 | 7 | 8 | 3.2 | 14.5 | 0.00 | 0.89 | 0.89 | 96 | 1009.0 |
| 20260506210233 | 7 | 326 | 0.0 | 4.8 | 0.05 | 0.89 | 0.89 | 96 | 1008.9 |
| 20260506205730 | 7 | 339 | 4.8 | 6.4 | 0.05 | 0.89 | 0.89 | 96 | 1008.7 |
| 20260506205226 | 7 | 320 | 3.2 | 6.4 | 0.00 | 0.89 | 0.89 | 96 | 1008.3 |
| 20260506204723 | 7 | 344 | 9.7 | 11.3 | 0.05 | 0.89 | 0.89 | 96 | 1008.7 |
| 20260506204220 | 7 | 301 | 4.8 | 11.3 | 0.00 | 0.89 | 0.89 | 96 | 1008.4 |
| 20260506203719 | 7 | 313 | 3.2 | 11.3 | 0.05 | 0.89 | 0.89 | 96 | 1008.3 |
| 20260506203215 | 7 | 78 | 0.0 | 9.7 | 0.05 | 0.89 | 0.89 | 96 | 1008.2 |
| 20260506202713 | 7 | 268 | 3.2 | 8.0 | 0.05 | 0.86 | 0.86 | 96 | 1008.2 |
| 20260506202209 | 7 | 329 | 3.2 | 8.0 | 0.05 | 0.86 | 0.86 | 96 | 1008.1 |
| 20260506201706 | 7 | 13 | 0.0 | 6.4 | 0.05 | 0.86 | 0.86 | 96 | 1007.8 |
| 20260506201203 | 7 | 221 | 4.8 | 8.0 | 0.05 | 0.86 | 0.86 | 96 | 1008.0 |
| 20260506200659 | 7 | 323 | 1.6 | 11.3 | 0.05 | 0.86 | 0.86 | 96 | 1007.8 |
| 20260506200156 | 7 | 284 | 3.2 | 8.0 | 0.00 | 0.86 | 0.86 | 96 | 1007.9 |
| 20260506195653 | 7 | 273 | 3.2 | 8.0 | 0.00 | 0.86 | 0.86 | 96 | 1007.9 |
| 20260506195149 | 7 | 306 | 3.2 | 6.4 | 0.00 | 0.86 | 0.86 | 96 | 1007.5 |
| 20260506194647 | 7 | 333 | 6.4 | 8.0 | 0.05 | 0.86 | 0.86 | 96 | 1007.9 |
| 20260506194143 | 8 | 334 | 1.6 | 6.4 | 0.05 | 0.86 | 0.86 | 96 | 1008.0 |
| 20260506193641 | 8 | 269 | 0.0 | 22.5 | 0.00 | 0.84 | 0.84 | 96 | 1007.8 |
| 20260506193138 | 8 | 8 | 3.2 | 4.8 | 0.05 | 0.84 | 0.84 | 96 | 1007.9 |
| 20260506192634 | 8 | 322 | 3.2 | 6.4 | 0.00 | 0.84 | 0.84 | 96 | 1007.6 |
| 20260506192130 | 7 | 359 | 0.0 | 8.0 | 0.05 | 0.84 | 0.84 | 96 | 1007.7 |
| 20260506191627 | 7 | 292 | 4.8 | 8.0 | 0.05 | 0.84 | 0.84 | 96 | 1007.6 |
| 20260506191123 | 7 | 311 | 3.2 | 11.3 | 0.00 | 0.81 | 0.81 | 96 | 1007.6 |
| 20260506190621 | 8 | 320 | 0.0 | 4.8 | 0.00 | 0.81 | 0.81 | 96 | 1007.7 |
| 20260506190118 | 8 | 299 | 0.0 | 4.8 | 0.05 | 0.81 | 0.81 | 96 | 1007.4 |
| 20260506185615 | 8 | 349 | 1.6 | 4.8 | 0.05 | 0.81 | 0.81 | 96 | 1007.3 |
| 20260506185111 | 8 | 240 | 0.0 | 4.8 | 0.00 | 0.81 | 0.81 | 96 | 1007.3 |
| 20260506184609 | 8 | 300 | 1.6 | 4.8 | 0.05 | 0.81 | 0.81 | 96 | 1007.2 |
| 20260506184106 | 7 | 21 | 3.2 | 4.8 | 0.05 | 0.81 | 0.81 | 96 | 1007.1 |
| 20260506183602 | 8 | 331 | 4.8 | 6.4 | 0.05 | 0.81 | 0.81 | 96 | 1007.3 |
| 20260506183058 | 8 | 351 | 3.2 | 8.0 | 0.05 | 0.81 | 0.81 | 96 | 1007.2 |
| 20260506182556 | 8 | 256 | 1.6 | 6.4 | 0.05 | 0.79 | 0.79 | 96 | 1007.0 |
| 20260506182053 | 8 | 356 | 3.2 | 6.4 | 0.05 | 0.79 | 0.79 | 96 | 1007.1 |
| 20260506181551 | 8 | 300 | 3.2 | 9.7 | 0.05 | 0.79 | 0.79 | 96 | 1007.2 |
| 20260506181047 | 8 | 322 | 3.2 | 6.4 | 0.05 | 0.79 | 0.79 | 96 | 1006.9 |
| 20260506180544 | 8 | 231 | 0.0 | 6.4 | 0.05 | 0.76 | 0.76 | 96 | 1007.1 |
| 20260506180040 | 8 | 346 | 1.6 | 6.4 | 0.05 | 0.76 | 0.76 | 96 | 1006.7 |
| 20260506175537 | 8 | 269 | 0.0 | 8.0 | 0.05 | 0.76 | 0.76 | 96 | 1006.9 |
| 20260506175033 | 8 | 336 | 0.0 | 11.3 | 0.05 | 0.76 | 0.76 | 96 | 1006.7 |
| 20260506174532 | 8 | 331 | 3.2 | 8.0 | 0.05 | 0.74 | 0.74 | 96 | 1006.4 |
| 20260506174028 | 8 | 312 | 3.2 | 8.0 | 0.05 | 0.74 | 0.74 | 96 | 1006.4 |
| 20260506173526 | 9 | 347 | 3.2 | 8.0 | 0.05 | 0.74 | 0.74 | 96 | 1006.4 |
| 20260506173022 | 9 | 254 | 6.4 | 14.5 | 0.05 | 0.74 | 0.74 | 96 | 1006.4 |
| 20260506172520 | 9 | 305 | 3.2 | 8.0 | 0.13 | 0.74 | 0.74 | 96 | 1006.5 |
| 20260506172016 | 9 | 320 | 4.8 | 6.4 | 0.05 | 0.71 | 0.71 | 96 | 1006.4 |
| 20260506171513 | 10 | 281 | 3.2 | 8.0 | 0.05 | 0.71 | 0.71 | 96 | 1006.4 |
| 20260506171011 | 11 | 347 | 8.0 | 11.3 | 0.05 | 0.71 | 0.71 | 96 | 1006.2 |
| 20260506170508 | 11 | 307 | 3.2 | 4.8 | 0.05 | 0.71 | 0.71 | 96 | 1006.3 |
| 20260506170000 | 11 | 251 | 8.0 | 16.1 | 0.05 | 0.69 | 0.69 | 96 | 1006.2 |
| 20260506165458 | 12 | 251 | 4.8 | 14.5 | 0.13 | 0.69 | 0.69 | 96 | 1006.2 |
| 20260506164954 | 12 | 252 | 1.6 | 9.7 | 0.05 | 0.69 | 0.69 | 96 | 1006.3 |
| 20260506164450 | 12 | 238 | 4.8 | 8.0 | 0.05 | 0.66 | 0.66 | 96 | 1006.2 |
| 20260506163948 | 12 | 163 | 8.0 | 14.5 | 0.00 | 0.66 | 0.66 | 96 | 1006.2 |
| 20260506163443 | 12 | 180 | 3.2 | 8.0 | 0.05 | 0.66 | 0.66 | 96 | 1006.0 |
| 20260506162938 | 12 | 127 | 1.6 | 11.3 | 0.05 | 0.66 | 0.66 | 96 | 1006.1 |
| 20260506162436 | 12 | 256 | 3.2 | 12.9 | 0.05 | 0.66 | 0.66 | 96 | 1006.2 |
| 20260506161928 | 12 | 205 | 3.2 | 11.3 | 0.13 | 0.66 | 0.66 | 96 | 1006.0 |
| 20260506161426 | 12 | 194 | 4.8 | 12.9 | 0.13 | 0.64 | 0.64 | 96 | 1005.9 |
| 20260506160923 | 12 | 218 | 6.4 | 9.7 | 0.13 | 0.64 | 0.64 | 96 | 1005.9 |
| 20260506160420 | 12 | 143 | 6.4 | 11.3 | 0.05 | 0.61 | 0.61 | 96 | 1006.1 |
| 20260506155917 | 12 | 276 | 3.2 | 8.0 | 0.05 | 0.61 | 0.61 | 96 | 1006.2 |
| 20260506155414 | 12 | 135 | 4.8 | 8.0 | 0.13 | 0.61 | 0.61 | 96 | 1006.1 |
| 20260506153536 | 12 | 144 | 0.0 | 11.3 | 0.05 | 0.56 | 0.56 | 96 | 1006.3 |
| 20260506153034 | 12 | 141 | 6.4 | 8.0 | 0.13 | 0.56 | 0.56 | 96 | 1006.3 |
| 20260506152531 | 12 | 115 | 3.2 | 8.0 | 0.13 | 0.56 | 0.56 | 96 | 1006.3 |
| 20260506152029 | 12 | 123 | 4.8 | 8.0 | 0.13 | 0.53 | 0.53 | 96 | 1006.2 |
| 20260506151526 | 12 | 125 | 3.2 | 11.3 | 0.13 | 0.53 | 0.53 | 96 | 1006.3 |
| 20260506151024 | 12 | 235 | 4.8 | 9.7 | 0.05 | 0.51 | 0.51 | 96 | 1006.4 |
| 20260506150520 | 12 | 219 | 3.2 | 6.4 | 0.13 | 0.51 | 0.51 | 96 | 1006.3 |
| 20260506150017 | 12 | 149 | 3.2 | 8.0 | 0.05 | 0.51 | 0.51 | 96 | 1006.1 |
| 20260506145513 | 12 | 145 | 6.4 | 9.7 | 0.13 | 0.48 | 0.48 | 96 | 1006.2 |
| 20260506145011 | 12 | 186 | 6.4 | 9.7 | 0.05 | 0.48 | 0.48 | 96 | 1006.2 |
| 20260506144507 | 12 | 143 | 9.7 | 16.1 | 0.05 | 0.46 | 0.46 | 96 | 1006.0 |
| 20260506144005 | 12 | 206 | 3.2 | 8.0 | 0.13 | 0.46 | 0.46 | 96 | 1005.9 |
| 20260506143502 | 12 | 175 | 3.2 | 8.0 | 0.13 | 0.46 | 0.46 | 96 | 1006.0 |
| 20260506143001 | 13 | 197 | 3.2 | 8.0 | 0.13 | 0.46 | 0.46 | 96 | 1006.0 |
| 20260506142458 | 13 | 106 | 6.4 | 8.0 | 0.13 | 0.43 | 0.43 | 96 | 1006.2 |
| 20260506141956 | 12 | 188 | 3.2 | 4.8 | 0.18 | 0.43 | 0.43 | 96 | 1006.3 |
| 20260506141453 | 12 | 179 | 1.6 | 11.3 | 0.13 | 0.41 | 0.41 | 96 | 1006.3 |
| 20260506140952 | 12 | 180 | 3.2 | 12.9 | 0.13 | 0.41 | 0.41 | 96 | 1006.1 |
| 20260506140448 | 12 | 169 | 3.2 | 11.3 | 0.18 | 0.38 | 0.38 | 96 | 1006.2 |
| 20260506135945 | 12 | 154 | 3.2 | 8.0 | 0.18 | 0.38 | 0.38 | 96 | 1006.1 |
| 20260506135443 | 12 | 176 | 1.6 | 6.4 | 0.18 | 0.38 | 0.38 | 96 | 1006.3 |
| 20260506134938 | 12 | 157 | 0.0 | 4.8 | 0.13 | 0.36 | 0.36 | 96 | 1006.4 |
| 20260506134435 | 12 | 167 | 3.2 | 8.0 | 0.18 | 0.33 | 0.33 | 96 | 1006.4 |
| 20260506133932 | 12 | 148 | 8.0 | 17.7 | 0.18 | 0.33 | 0.33 | 96 | 1006.5 |
| 20260506133429 | 11 | 116 | 0.0 | 8.0 | 0.13 | 0.30 | 0.30 | 96 | 1006.7 |
| 20260506132926 | 11 | 84 | 1.6 | 4.8 | 0.13 | 0.30 | 0.30 | 96 | 1006.7 |
| 20260506132422 | 11 | 242 | 3.2 | 4.8 | 0.05 | 0.28 | 0.28 | 96 | 1007.0 |
| 20260506131920 | 11 | 191 | 1.6 | 6.4 | 0.13 | 0.28 | 0.28 | 96 | 1007.0 |
| 20260506131416 | 11 | 159 | 1.6 | 4.8 | 0.13 | 0.28 | 0.28 | 96 | 1007.1 |
| 20260506130914 | 11 | 125 | 4.8 | 12.9 | 0.13 | 0.25 | 0.25 | 96 | 1007.1 |
| 20260506130410 | 11 | 139 | 1.6 | 8.0 | 0.13 | 0.23 | 0.23 | 96 | 1007.3 |
| 20260506125908 | 11 | 124 | 4.8 | 4.8 | 0.13 | 0.23 | 0.23 | 96 | 1007.3 |
| 20260506125406 | 11 | 165 | 0.0 | 11.3 | 0.13 | 0.23 | 0.23 | 96 | 1007.3 |
| 20260506124904 | 11 | 140 | 0.0 | 6.4 | 0.13 | 0.20 | 0.20 | 96 | 1007.2 |
| 20260506124401 | 11 | 206 | 1.6 | 3.2 | 0.13 | 0.20 | 0.20 | 96 | 1007.2 |
| 20260506123859 | 11 | 175 | 1.6 | 4.8 | 0.13 | 0.18 | 0.18 | 96 | 1007.1 |
| 20260506123357 | 11 | 211 | 3.2 | 6.4 | 0.13 | 0.18 | 0.18 | 96 | 1007.0 |
| 20260506122854 | 11 | 166 | 0.0 | 3.2 | 0.05 | 0.15 | 0.15 | 96 | 1007.0 |
| 20260506122350 | 11 | 204 | 0.0 | 4.8 | 0.13 | 0.15 | 0.15 | 96 | 1007.1 |
| 20260506121849 | 11 | 106 | 0.0 | 4.8 | 0.05 | 0.15 | 0.15 | 96 | 1006.6 |
| 20260506121346 | 11 | 79 | 1.6 | 4.8 | 0.05 | 0.15 | 0.15 | 96 | 1006.5 |
| 20260506120842 | 11 | 181 | 3.2 | 4.8 | 0.05 | 0.15 | 0.15 | 96 | 1006.5 |
| 20260506120340 | 10 | 113 | 0.0 | 4.8 | 0.00 | 0.13 | 0.13 | 96 | 1006.4 |
| 20260506115837 | 10 | 112 | 1.6 | 3.2 | 0.05 | 0.13 | 0.13 | 96 | 1006.4 |
| 20260506115336 | 10 | 81 | 1.6 | 4.8 | 0.13 | 0.13 | 0.13 | 96 | 1006.6 |
| 20260506114833 | 10 | 113 | 3.2 | 4.8 | 0.05 | 0.13 | 0.13 | 96 | 1007.1 |
| 20260506114331 | 10 | 106 | 3.2 | 3.2 | 0.05 | 0.10 | 0.10 | 96 | 1007.3 |
| 20260506113829 | 10 | 133 | 1.6 | 3.2 | 0.13 | 0.10 | 0.10 | 96 | 1007.2 |
| 20260506113326 | 10 | 100 | 1.6 | 3.2 | 0.00 | 0.10 | 0.10 | 96 | 1007.2 |
| 20260506112823 | 10 | 50 | 3.2 | 3.2 | 0.05 | 0.10 | 0.10 | 96 | 1007.2 |
| 20260506112320 | 10 | 51 | 1.6 | 3.2 | 0.05 | 0.10 | 0.10 | 96 | 1007.3 |
| 20260506111817 | 10 | 49 | 3.2 | 4.8 | 0.00 | 0.08 | 0.08 | 96 | 1007.3 |
| 20260506111315 | 10 | 78 | 1.6 | 3.2 | 0.00 | 0.08 | 0.08 | 96 | 1007.3 |
| 20260506110813 | 10 | 47 | 3.2 | 3.2 | 0.00 | 0.08 | 0.08 | 96 | 1007.4 |
| 20260506110310 | 10 | 11 | 3.2 | 4.8 | 0.00 | 0.08 | 0.08 | 96 | 1007.5 |
| 20260506105806 | 10 | 26 | 3.2 | 3.2 | 0.00 | 0.08 | 0.08 | 96 | 1007.3 |
| 20260506105305 | 10 | 57 | 1.6 | 3.2 | 0.00 | 0.08 | 0.08 | 96 | 1007.4 |
| 20260506104801 | 10 | 60 | 1.6 | 3.2 | 0.05 | 0.08 | 0.08 | 96 | 1007.1 |
| 20260506104258 | 10 | 99 | 3.2 | 3.2 | 0.05 | 0.08 | 0.08 | 96 | 1007.1 |
| 20260506103755 | 10 | 56 | 0.0 | 1.6 | 0.00 | 0.08 | 0.08 | 96 | 1007.3 |
| 20260506103253 | 10 | 51 | 0.0 | 3.2 | 0.05 | 0.08 | 0.08 | 96 | 1007.2 |
| 20260506102750 | 10 | 38 | 0.0 | 1.6 | 0.05 | 0.08 | 0.08 | 96 | 1007.1 |
| 20260506102248 | 10 | 50 | 1.6 | 3.2 | 0.05 | 0.05 | 0.05 | 96 | 1007.1 |
| 20260506101745 | 10 | 115 | 1.6 | 3.2 | 0.05 | 0.05 | 0.05 | 96 | 1006.9 |
| 20260506101241 | 10 | 75 | 1.6 | 4.8 | 0.05 | 0.05 | 0.05 | 96 | 1006.9 |
| 20260506100739 | 10 | 47 | 0.0 | 3.2 | 0.05 | 0.05 | 0.05 | 96 | 1007.0 |
| 20260506100237 | 9 | 55 | 1.6 | 3.2 | 0.00 | 0.05 | 0.05 | 96 | 1006.7 |
| 20260506095736 | 9 | 70 | 1.6 | 3.2 | 0.00 | 0.05 | 0.05 | 96 | 1006.9 |
| 20260506095232 | 9 | 89 | 1.6 | 3.2 | 0.00 | 0.05 | 0.05 | 96 | 1006.5 |
| 20260506094729 | 9 | 60 | 1.6 | 3.2 | 0.05 | 0.05 | 0.05 | 96 | 1006.7 |
| 20260506094227 | 10 | 72 | 0.0 | 3.2 | 0.05 | 0.05 | 0.05 | 96 | 1006.9 |
| 20260506093726 | 10 | 66 | 0.0 | 4.8 | 0.00 | 0.03 | 0.03 | 96 | 1006.7 |
| 20260506093222 | 10 | 84 | 1.6 | 3.2 | 0.00 | 0.03 | 0.03 | 96 | 1006.9 |
| 20260506092720 | 10 | 69 | 0.0 | 3.2 | 0.00 | 0.03 | 0.03 | 96 | 1006.7 |
| 20260506092217 | 10 | 111 | 3.2 | 4.8 | 0.05 | 0.03 | 0.03 | 95 | 1006.9 |
| 20260506091715 | 9 | 115 | 3.2 | 4.8 | 0.05 | 0.03 | 0.03 | 95 | 1006.9 |
| 20260506091212 | 9 | 97 | 3.2 | 3.2 | 0.00 | 0.03 | 0.03 | 95 | 1007.1 |
| 20260506090710 | 9 | 76 | 0.0 | 1.6 | 0.05 | 0.03 | 0.03 | 95 | 1007.0 |
| 20260506090206 | 9 | 95 | 3.2 | 3.2 | 0.05 | 0.03 | 0.03 | 95 | 1007.1 |
| 20260506085704 | 9 | 95 | 1.6 | 3.2 | 0.00 | 0.00 | 0.00 | 94 | 1007.4 |